Starlink 11609

operational
NORAD ID: 63132 Int'l Des: 2025-043 Owner: SPXS Country: US Constellation: starlink
LEOCIRCULAR

Über Starlink 11609

Beschreibung wird geladen...

Live-Position

3D-Globus wird geladen...

Nächste Überflüge

Höhenverlauf

Altitude vs Time

uPlot chart will show altitude changes over time

Zweizeiliger Elementsatz

1 63132U 25043A 25308.00314116 .00379940 00000-0 28031-2 0 9991
2 63132 42.9999 288.4279 0001929 218.4648 141.6082 15.71078065 39692
Epoch: 4. Nov. 2025 • Age: 10 hours

Aktueller Status

Höhe 353.5 km
Geschwindigkeit 7.70 km/s
Subsatellitenpunkt 14.82°N, 102.8°W
Startdatum 3. März 2025
Alter 0.6 years
Typ internet

Technische Details

Klassifizierung Payload
Masse 960.00 kg
Trockenmasse 910.00 kg
Gesamtmasse 960.00 kg
Länge 0.30 m
Durchmesser 4.10 m
Spannweite 29.00 m
Form Box + pan
Hersteller SPXS
Bus-Typ Starlink V2MD
Phasenstatus In Orbit
Besitzer/Staat SPXS/US

Große Konstellationen

Loading constellations...